Zurück zum Katalog

STARLINK-34556

AktivKommunikationVLEO
NORAD 64733·PAYLOAD·🇺🇸 United States

Gestartet Jul 2, 2025 von Cape Canaveral Space Force Station

Loading…

Nächste Überflüge (nächste 24 Stunden)

TLE

AktuellSource: CelesTrak SupGP

Epoche: Sep 14, 2026, 15:02 UTC

1 64733C 25144K   26257.62687500 -.00080741  00000+0 -23860-2 0  2574
2 64733  53.1599  16.8495 0001182  86.9191 214.4824 15.34424098    12

Verfolge STARLINK-34556 in Echtzeit mit AllMySat

Download on the App Store